This is the latest recevied weather packets stored in our database for station/object 4S6DRJ-13. If no packets are shown the sender has not sent any weather packets the latest 10 day(s).
| Time | Temp. | Humidity | Pressure | Rain* | Wind** | Luminosity | Snow |
|---|---|---|---|---|---|---|---|
| 1787783197 | 26.67° C | 89% | 1008.9 hPa | 0 mm | 0.89 m/s, 211° | 0 W/m² | - |
| 1787783136 | 26.67° C | 90% | 1009 hPa | 0 mm | 0.45 m/s, 160° | 0 W/m² | - |
| 1787783075 | 26.67° C | 90% | 1009 hPa | 0 mm | 0.89 m/s, 244° | 0 W/m² | - |
| 1787783014 | 26.67° C | 90% | 1009 hPa | 0 mm | 0.89 m/s, 249° | 0 W/m² | - |
| 1787782954 | 26.67° C | 90% | 1009.1 hPa | 0 mm | 0 m/s | 0 W/m² | - |
| 1787782892 | 26.67° C | 90% | 1009.1 hPa | 0 mm | 0.89 m/s, 226° | 0 W/m² | - |
| 1787782832 | 26.67° C | 90% | 1009.2 hPa | 0 mm | 0 m/s | 0 W/m² | - |
| 1787782771 | 26.67° C | 90% | 1009.2 hPa | 0 mm | 0 m/s | 0 W/m² | - |
| 1787782710 | 26.67° C | 90% | 1009.2 hPa | 0 mm | 0.45 m/s, 218° | 0 W/m² | - |
| 1787782650 | 26.67° C | 90% | 1009.1 hPa | 0 mm | 0.89 m/s, 229° | 0 W/m² | - |
| 1787782588 | 26.67° C | 90% | 1009.2 hPa | 0 mm | 0.45 m/s, 235° | 0 W/m² | - |
| 1787782527 | 26.67° C | 90% | 1009.1 hPa | 0 mm | 0.45 m/s, 191° | 0 W/m² | - |
| 1787782466 | 26.67° C | 90% | 1009 hPa | 0 mm | 0.45 m/s, 228° | 0 W/m² | - |
| 1787782405 | 26.67° C | 90% | 1009.1 hPa | 0 mm | 0.45 m/s, 218° | 0 W/m² | - |
| 1787782344 | 26.67° C | 90% | 1009.1 hPa | 0 mm | 0.89 m/s, 216° | 0 W/m² | - |
| 1787782284 | 26.67° C | 91% | 1008.9 hPa | 0 mm | 0.45 m/s, 216° | 0 W/m² | - |
| 1787782222 | 26.67° C | 91% | 1009 hPa | 0 mm | 1.79 m/s, 230° | 0 W/m² | - |
| 1787782161 | 26.67° C | 91% | 1009.1 hPa | 0 mm | 0 m/s | 0 W/m² | - |
| 1787782100 | 26.67° C | 91% | 1008.9 hPa | 0 mm | 1.79 m/s, 247° | 0 W/m² | - |
| 1787782039 | 26.67° C | 91% | 1009 hPa | 0 mm | 0.45 m/s, 205° | 0 W/m² | - |
| 1787781982 | 26.67° C | 91% | 1009.1 hPa | 0 mm | 1.34 m/s, 222° | 0 W/m² | - |
| 1787781917 | 26.67° C | 91% | 1009.1 hPa | 0 mm | 1.34 m/s, 240° | 0 W/m² | - |
| 1787781857 | 26.67° C | 91% | 1008.9 hPa | 0 mm | 0.89 m/s, 228° | 0 W/m² | - |
| 1787781795 | 26.67° C | 91% | 1009.4 hPa | 0 mm | 0.89 m/s, 270° | 0 W/m² | - |
| 1787781734 | 26.67° C | 91% | 1009.1 hPa | 0 mm | 0 m/s | 0 W/m² | - |
* Rain latest hour (hover to see other rain measurements)
** Current wind speed in m/s (hover to see current wind gust speed)